Location: Hillsman's Observatory
(38.8566°N, 93.9398°W)
Time: 16:13:18
(UTC-05:00)

Tiangong 2 - Visible Passes

Search period start: 22 June 2018 00:00
Search period end: 02 July 2018 00:00
Orbit: 291 x 296 km, 42.8° (Epoch: 21 June)

Date Brightness Start Highest point End Pass type
(mag) Time Alt. Az. Time Alt. Az. Time Alt. Az.
24 Jun 3.3 05:06:35 10° SSE 05:07:12 11° SE 05:07:48 10° SE visible
25 Jun 2.4 05:10:51 10° SSW 05:12:54 21° SSE 05:14:57 10° E visible
26 Jun 1.2 05:16:08 10° SW 05:18:35 43° SSE 05:21:04 10° E visible
27 Jun 3.5 03:51:00 10° ESE 03:51:00 10° ESE 03:51:07 10° ESE visible
27 Jun 0.5 05:21:45 10° WSW 05:24:17 90° WSW 05:26:51 10° ENE visible
28 Jun 2.5 03:56:12 21° ESE 03:56:12 21° ESE 03:57:35 10° E visible
29 Jun 1.2 04:01:18 44° ESE 04:01:18 44° ESE 04:03:23 10° ENE visible
30 Jun 0.4 04:06:18 78° NW 04:06:22 79° NNW 04:08:56 10° ENE visible
01 Jul 1.3 04:11:14 37° WNW 04:11:51 47° NNW 04:14:20 10° ENE visible
